owner,sensor,date,latitude,longitude,vertical_datum,sea_water_practical_salinity,qcFlag 
DISL,ioos:station:DISL:MHPA:1,2015-01-01T00:00:00Z,30.6671,-87.9365,1.2,3.8,11111222 
DISL,ioos:station:DISL:MHPA:1,2015-01-01T00:30:00Z,30.6671,-87.9365,1.2,3.0,11111222 
DISL,ioos:station:DISL:MHPA:1,2015-01-01T01:00:00Z,30.6671,-87.9365,1.2,3.6,11111222 
DISL,ioos:station:DISL:MHPA:1,2015-01-01T01:30:00Z,30.6671,-87.9365,1.2,2.6,11111222 
DISL,ioos:station:DISL:MHPA:1,2015-01-01T02:00:00Z,30.6671,-87.9365,1.1,3.4,11111222 
DISL,ioos:station:DISL:MHPA:1,2015-01-01T02:30:00Z,30.6671,-87.9365,1.1,3.7,11111222 
DISL,ioos:station:DISL:MHPA:1,2015-01-01T03:00:00Z,30.6671,-87.9365,1.1,3.2,11111222 
DISL,ioos:station:DISL:MHPA:1,2015-01-01T03:30:00Z,30.6671,-87.9365,1.1,3.0,11111222 
DISL,ioos:station:DISL:MHPA:1,2015-01-01T04:00:00Z,30.6671,-87.9365,1.1,3.5,11111222 
DISL,ioos:station:DISL:MHPA:1,2015-01-01T04:30:00Z,30.6671,-87.9365,1.1,3.9,11111222 
DISL,ioos:station:DISL:MHPA:1,2015-01-01T05:00:00Z,30.6671,-87.9365,1.0,3.6,11111222 
DISL,ioos:station:DISL:MHPA:1,2015-01-01T05:30:00Z,30.6671,-87.9365,1.0,3.7,11111222 
DISL,ioos:station:DISL:MHPA:1,2015-01-01T06:30:00Z,30.6671,-87.9365,0.971,3.43,1111122 
DISL,ioos:station:DISL:MHPA:1,2015-01-01T07:00:00Z,30.6671,-87.9365,0.947,3.34,1111122 
DISL,ioos:station:DISL:MHPA:1,2015-01-01T07:30:00Z,30.6671,-87.9365,0.922,3.39,1111122 
DISL,ioos:station:DISL:MHPA:1,2015-01-01T08:00:00Z,30.6671,-87.9365,0.89,3.57,1111122 
DISL,ioos:station:DISL:MHPA:1,2015-01-01T08:30:00Z,30.6671,-87.9365,0.867,3.37,1111122 
DISL,ioos:station:DISL:MHPA:1,2015-01-01T09:00:00Z,30.6671,-87.9365,0.846,2.99,1111122 
DISL,ioos:station:DISL:MHPA:1,2015-01-01T09:30:00Z,30.6671,-87.9365,0.824,3.51,1111122 
DISL,ioos:station:DISL:MHPA:1,2015-01-01T10:00:00Z,30.6671,-87.9365,0.809,3.37,1111122 
DISL,ioos:station:DISL:MHPA:1,2015-01-01T10:30:00Z,30.6671,-87.9365,0.801,2.79,1111122 
DISL,ioos:station:DISL:MHPA:1,2015-01-01T11:00:00Z,30.6671,-87.9365,0.789,3.39,1111122 
DISL,ioos:station:DISL:MHPA:1,2015-01-01T11:30:00Z,30.6671,-87.9365,0.773,3.43,1111122 
DISL,ioos:station:DISL:MHPA:1,2015-01-01T12:00:00Z,30.6671,-87.9365,0.756,2.94,1111122 
DISL,ioos:station:DISL:MHPA:1,2015-01-01T12:30:00Z,30.6671,-87.9365,0.741,2.95,1111122 
DISL,ioos:station:DISL:MHPA:1,2015-01-01T13:00:00Z,30.6671,-87.9365,0.732,3.71,1111122 
DISL,ioos:station:DISL:MHPA:1,2015-01-01T13:30:00Z,30.6671,-87.9365,0.724,3.39,1111122 
DISL,ioos:station:DISL:MHPA:1,2015-01-01T14:00:00Z,30.6671,-87.9365,0.716,3.66,1111122 
DISL,ioos:station:DISL:MHPA:1,2015-01-01T14:30:00Z,30.6671,-87.9365,0.711,3.97,1111122 
DISL,ioos:station:DISL:MHPA:1,2015-01-01T15:00:00Z,30.6671,-87.9365,0.71,3.98,1111122 
DISL,ioos:station:DISL:MHPA:1,2015-01-01T15:30:00Z,30.6671,-87.9365,0.71,3.83,1111122 
DISL,ioos:station:DISL:MHPA:1,2015-01-01T16:00:00Z,30.6671,-87.9365,0.725,3.53,1111122 
DISL,ioos:station:DISL:MHPA:1,2015-01-01T16:30:00Z,30.6671,-87.9365,0.779,3.17,1111122 
DISL,ioos:station:DISL:MHPA:1,2015-01-01T17:00:00Z,30.6671,-87.9365,0.846,2.6,1111122 
DISL,ioos:station:DISL:MHPA:1,2015-01-01T17:30:00Z,30.6671,-87.9365,0.921,3.31,1111122 
DISL,ioos:station:DISL:MHPA:1,2015-01-01T18:00:00Z,30.6671,-87.9365,0.971,2.96,1111122 
DISL,ioos:station:DISL:MHPA:1,2015-01-01T18:30:00Z,30.6671,-87.9365,1.006,3.46,1111122 
DISL,ioos:station:DISL:MHPA:1,2015-01-01T19:00:00Z,30.6671,-87.9365,1.04,3.65,1111122 
DISL,ioos:station:DISL:MHPA:1,2015-01-01T19:30:00Z,30.6671,-87.9365,1.063,3.57,1111122 
DISL,ioos:station:DISL:MHPA:1,2015-01-01T20:00:00Z,30.6671,-87.9365,1.065,2.59,1111122 
DISL,ioos:station:DISL:MHPA:1,2015-01-01T20:30:00Z,30.6671,-87.9365,1.095,3.53,1111122 
DISL,ioos:station:DISL:MHPA:1,2015-01-01T21:00:00Z,30.6671,-87.9365,1.127,3.34,1111122 
DISL,ioos:station:DISL:MHPA:1,2015-01-01T21:30:00Z,30.6671,-87.9365,1.136,3.42,1111122 
DISL,ioos:station:DISL:MHPA:1,2015-01-01T22:00:00Z,30.6671,-87.9365,1.172,3.2,1111122 
DISL,ioos:station:DISL:MHPA:1,2015-01-01T22:30:00Z,30.6671,-87.9365,1.201,3.11,1111122 
DISL,ioos:station:DISL:MHPA:1,2015-01-01T23:00:00Z,30.6671,-87.9365,1.244,3.31,1111122 
DISL,ioos:station:DISL:MHPA:1,2015-01-01T23:30:00Z,30.6671,-87.9365,1.267,3.04,1111122 
DISL,ioos:station:DISL:MHPA:1,2015-01-02T00:00:00Z,30.6671,-87.9365,1.297,3.22,1111122 
DISL,ioos:station:DISL:MHPA:1,2015-01-02T00:30:00Z,30.6671,-87.9365,1.313,3.44,1111122 
DISL,ioos:station:DISL:MHPA:1,2015-01-02T01:00:00Z,30.6671,-87.9365,1.315,3.44,1111122 
DISL,ioos:station:DISL:MHPA:1,2015-01-02T01:30:00Z,30.6671,-87.9365,1.311,3.25,1111122 
DISL,ioos:station:DISL:MHPA:1,2015-01-02T02:00:00Z,30.6671,-87.9365,1.29,2.91,1111122 
DISL,ioos:station:DISL:MHPA:1,2015-01-02T02:30:00Z,30.6671,-87.9365,1.277,3.04,1111122 
DISL,ioos:station:DISL:MHPA:1,2015-01-02T03:00:00Z,30.6671,-87.9365,1.249,3.14,1111122 
DISL,ioos:station:DISL:MHPA:1,2015-01-02T03:30:00Z,30.6671,-87.9365,1.211,3.11,1111122 
DISL,ioos:station:DISL:MHPA:1,2015-01-02T04:00:00Z,30.6671,-87.9365,1.164,3.24,1111122 
DISL,ioos:station:DISL:MHPA:1,2015-01-02T04:30:00Z,30.6671,-87.9365,1.138,3.14,1111122 
DISL,ioos:station:DISL:MHPA:1,2015-01-02T05:00:00Z,30.6671,-87.9365,1.133,3.09,1111122 
DISL,ioos:station:DISL:MHPA:1,2015-01-02T05:30:00Z,30.6671,-87.9365,1.126,2.98,1111122 
DISL,ioos:station:DISL:MHPA:1,2015-01-02T06:00:00Z,30.6671,-87.9365,1.108,3.08,1111122 
DISL,ioos:station:DISL:MHPA:1,2015-01-02T06:30:00Z,30.6671,-87.9365,1.075,2.93,1111122 
DISL,ioos:station:DISL:MHPA:1,2015-01-02T07:00:00Z,30.6671,-87.9365,1.058,3.1,1111122 
DISL,ioos:station:DISL:MHPA:1,2015-01-02T07:30:00Z,30.6671,-87.9365,1.052,3.12,1111122 
DISL,ioos:station:DISL:MHPA:1,2015-01-02T08:00:00Z,30.6671,-87.9365,1.025,3.04,1111122 
DISL,ioos:station:DISL:MHPA:1,2015-01-02T08:30:00Z,30.6671,-87.9365,0.994,3.08,1111122 
DISL,ioos:station:DISL:MHPA:1,2015-01-02T09:00:00Z,30.6671,-87.9365,0.961,3.08,1111122 
DISL,ioos:station:DISL:MHPA:1,2015-01-02T09:30:00Z,30.6671,-87.9365,0.942,2.71,1111122 
DISL,ioos:station:DISL:MHPA:1,2015-01-02T10:00:00Z,30.6671,-87.9365,0.923,2.38,1111122 
DISL,ioos:station:DISL:MHPA:1,2015-01-02T10:30:00Z,30.6671,-87.9365,0.902,1.68,1111122 
DISL,ioos:station:DISL:MHPA:1,2015-01-02T11:00:00Z,30.6671,-87.9365,0.884,2.49,1111122 
DISL,ioos:station:DISL:MHPA:1,2015-01-02T11:30:00Z,30.6671,-87.9365,0.875,2.53,1111122 
DISL,ioos:station:DISL:MHPA:1,2015-01-02T12:00:00Z,30.6671,-87.9365,0.866,2.58,1111122 
DISL,ioos:station:DISL:MHPA:1,2015-01-02T12:30:00Z,30.6671,-87.9365,0.863,2.97,1111122 
DISL,ioos:station:DISL:MHPA:1,2015-01-02T13:00:00Z,30.6671,-87.9365,0.856,2.75,1111122 
DISL,ioos:station:DISL:MHPA:1,2015-01-02T13:30:00Z,30.6671,-87.9365,0.845,2.4,1111122 
DISL,ioos:station:DISL:MHPA:1,2015-01-02T14:00:00Z,30.6671,-87.9365,0.834,2.73,1111122 
DISL,ioos:station:DISL:MHPA:1,2015-01-02T14:30:00Z,30.6671,-87.9365,0.827,2.25,1111122 
DISL,ioos:station:DISL:MHPA:1,2015-01-02T15:00:00Z,30.6671,-87.9365,0.826,2.21,1111122 
DISL,ioos:station:DISL:MHPA:1,2015-01-02T15:30:00Z,30.6671,-87.9365,0.833,2.53,1111122 
DISL,ioos:station:DISL:MHPA:1,2015-01-02T16:00:00Z,30.6671,-87.9365,0.847,2.41,1111122 
DISL,ioos:station:DISL:MHPA:1,2015-01-02T16:30:00Z,30.6671,-87.9365,0.876,2.73,1111122 
DISL,ioos:station:DISL:MHPA:1,2015-01-02T17:00:00Z,30.6671,-87.9365,0.928,2.85,1111122 
DISL,ioos:station:DISL:MHPA:1,2015-01-02T17:30:00Z,30.6671,-87.9365,0.975,1.69,1111122 
DISL,ioos:station:DISL:MHPA:1,2015-01-02T18:00:00Z,30.6671,-87.9365,1.013,2.09,1111122 
DISL,ioos:station:DISL:MHPA:1,2015-01-02T18:30:00Z,30.6671,-87.9365,1.048,2.67,1111122 
DISL,ioos:station:DISL:MHPA:1,2015-01-02T19:00:00Z,30.6671,-87.9365,1.081,2.48,1111122 
DISL,ioos:station:DISL:MHPA:1,2015-01-02T19:30:00Z,30.6671,-87.9365,1.099,3.07,1111122 
DISL,ioos:station:DISL:MHPA:1,2015-01-02T20:00:00Z,30.6671,-87.9365,1.131,2.62,1111122 
DISL,ioos:station:DISL:MHPA:1,2015-01-02T20:30:00Z,30.6671,-87.9365,1.151,2.26,1111122 
DISL,ioos:station:DISL:MHPA:1,2015-01-02T21:00:00Z,30.6671,-87.9365,1.185,2.84,1111122 
DISL,ioos:station:DISL:MHPA:1,2015-01-02T21:30:00Z,30.6671,-87.9365,1.198,3.05,1111122 
DISL,ioos:station:DISL:MHPA:1,2015-01-02T22:00:00Z,30.6671,-87.9365,1.224,3.03,1111122 
DISL,ioos:station:DISL:MHPA:1,2015-01-02T22:30:00Z,30.6671,-87.9365,1.238,2.73,1111122 
DISL,ioos:station:DISL:MHPA:1,2015-01-02T23:00:00Z,30.6671,-87.9365,1.262,2.81,1111122 
DISL,ioos:station:DISL:MHPA:1,2015-01-02T23:30:00Z,30.6671,-87.9365,1.285,2.51,1111122 
DISL,ioos:station:DISL:MHPA:1,2015-01-03T00:00:00Z,30.6671,-87.9365,1.307,2.84,1111122 
DISL,ioos:station:DISL:MHPA:1,2015-01-03T00:30:00Z,30.6671,-87.9365,1.305,2.68,1111122 
DISL,ioos:station:DISL:MHPA:1,2015-01-03T01:00:00Z,30.6671,-87.9365,1.34,2.68,1111122 
DISL,ioos:station:DISL:MHPA:1,2015-01-03T01:30:00Z,30.6671,-87.9365,1.353,3.04,1111122 
DISL,ioos:station:DISL:MHPA:1,2015-01-03T02:00:00Z,30.6671,-87.9365,1.359,3.16,1111122 
DISL,ioos:station:DISL:MHPA:1,2015-01-03T02:30:00Z,30.6671,-87.9365,1.382,3.32,1111122 
DISL,ioos:station:DISL:MHPA:1,2015-01-03T03:00:00Z,30.6671,-87.9365,1.379,3.04,1111122 
DISL,ioos:station:DISL:MHPA:1,2015-01-03T03:30:00Z,30.6671,-87.9365,1.381,3.34,1111122 
DISL,ioos:station:DISL:MHPA:1,2015-01-03T04:00:00Z,30.6671,-87.9365,1.37,3.25,1111122 
DISL,ioos:station:DISL:MHPA:1,2015-01-03T04:30:00Z,30.6671,-87.9365,1.356,2.21,1111122 
DISL,ioos:station:DISL:MHPA:1,2015-01-03T05:00:00Z,30.6671,-87.9365,1.336,2.77,1111122 
DISL,ioos:station:DISL:MHPA:1,2015-01-03T05:30:00Z,30.6671,-87.9365,1.323,2.8,1111122 
DISL,ioos:station:DISL:MHPA:1,2015-01-03T06:00:00Z,30.6671,-87.9365,1.291,2.41,1111122 
DISL,ioos:station:DISL:MHPA:1,2015-01-03T06:30:00Z,30.6671,-87.9365,1.265,2.57,1111122 
DISL,ioos:station:DISL:MHPA:1,2015-01-03T07:00:00Z,30.6671,-87.9365,1.231,2.17,1111122 
DISL,ioos:station:DISL:MHPA:1,2015-01-03T07:30:00Z,30.6671,-87.9365,1.194,2.52,1111122 
DISL,ioos:station:DISL:MHPA:1,2015-01-03T08:00:00Z,30.6671,-87.9365,1.158,2.93,1111122 
DISL,ioos:station:DISL:MHPA:1,2015-01-03T08:30:00Z,30.6671,-87.9365,1.128,2.71,1111122 
DISL,ioos:station:DISL:MHPA:1,2015-01-03T09:00:00Z,30.6671,-87.9365,1.102,2.53,1111122 
DISL,ioos:station:DISL:MHPA:1,2015-01-03T09:30:00Z,30.6671,-87.9365,1.072,2.37,1111122 
DISL,ioos:station:DISL:MHPA:1,2015-01-03T10:00:00Z,30.6671,-87.9365,1.05,2.58,1111122 
DISL,ioos:station:DISL:MHPA:1,2015-01-03T10:30:00Z,30.6671,-87.9365,1.022,2.78,1111122 
DISL,ioos:station:DISL:MHPA:1,2015-01-03T11:00:00Z,30.6671,-87.9365,0.997,2.11,1111122 
DISL,ioos:station:DISL:MHPA:1,2015-01-03T11:30:00Z,30.6671,-87.9365,0.977,1.85,1111122 
DISL,ioos:station:DISL:MHPA:1,2015-01-03T12:00:00Z,30.6671,-87.9365,0.958,1.81,1111122 
DISL,ioos:station:DISL:MHPA:1,2015-01-03T12:30:00Z,30.6671,-87.9365,0.942,1.05,1111122 
DISL,ioos:station:DISL:MHPA:1,2015-01-03T13:00:00Z,30.6671,-87.9365,0.93,0.94,1111122 
DISL,ioos:station:DISL:MHPA:1,2015-01-03T13:30:00Z,30.6671,-87.9365,0.926,0.58,1111122 
DISL,ioos:station:DISL:MHPA:1,2015-01-03T14:00:00Z,30.6671,-87.9365,0.933,0.52,1111122 
DISL,ioos:station:DISL:MHPA:1,2015-01-03T14:30:00Z,30.6671,-87.9365,0.941,0.63,1111122 
DISL,ioos:station:DISL:MHPA:1,2015-01-03T15:00:00Z,30.6671,-87.9365,0.946,0.61,1111122 
DISL,ioos:station:DISL:MHPA:1,2015-01-03T15:30:00Z,30.6671,-87.9365,0.956,0.5,1111122 
DISL,ioos:station:DISL:MHPA:1,2015-01-03T16:00:00Z,30.6671,-87.9365,1.006,0.5,1111122 
DISL,ioos:station:DISL:MHPA:1,2015-01-03T16:30:00Z,30.6671,-87.9365,1.066,0.52,1111122 
DISL,ioos:station:DISL:MHPA:1,2015-01-03T17:00:00Z,30.6671,-87.9365,1.087,0.59,1111122 
DISL,ioos:station:DISL:MHPA:1,2015-01-03T17:30:00Z,30.6671,-87.9365,1.119,0.71,1111122 
DISL,ioos:station:DISL:MHPA:1,2015-01-03T18:00:00Z,30.6671,-87.9365,1.161,0.76,1111122 
DISL,ioos:station:DISL:MHPA:1,2015-01-03T18:30:00Z,30.6671,-87.9365,1.201,0.79,1111122 
DISL,ioos:station:DISL:MHPA:1,2015-01-03T19:00:00Z,30.6671,-87.9365,1.239,0.9,1111122 
DISL,ioos:station:DISL:MHPA:1,2015-01-03T19:30:00Z,30.6671,-87.9365,1.281,0.95,1111122 
DISL,ioos:station:DISL:MHPA:1,2015-01-03T20:00:00Z,30.6671,-87.9365,1.334,0.96,1111122 
DISL,ioos:station:DISL:MHPA:1,2015-01-03T20:30:00Z,30.6671,-87.9365,1.339,0.95,1111122 
DISL,ioos:station:DISL:MHPA:1,2015-01-03T21:00:00Z,30.6671,-87.9365,1.4,0.93,1111122 
DISL,ioos:station:DISL:MHPA:1,2015-01-03T21:30:00Z,30.6671,-87.9365,1.446,0.96,1111122 
DISL,ioos:station:DISL:MHPA:1,2015-01-03T22:00:00Z,30.6671,-87.9365,1.456,1.09,1111122 
DISL,ioos:station:DISL:MHPA:1,2015-01-03T22:30:00Z,30.6671,-87.9365,1.463,0.97,1111122 
DISL,ioos:station:DISL:MHPA:1,2015-01-03T23:00:00Z,30.6671,-87.9365,1.484,0.94,1111122 
DISL,ioos:station:DISL:MHPA:1,2015-01-03T23:30:00Z,30.6671,-87.9365,1.479,0.9,1111122 
DISL,ioos:station:DISL:MHPA:1,2015-01-04T00:00:00Z,30.6671,-87.9365,1.513,0.85,1111122 
DISL,ioos:station:DISL:MHPA:1,2015-01-04T00:30:00Z,30.6671,-87.9365,1.549,0.86,1111122 
DISL,ioos:station:DISL:MHPA:1,2015-01-04T01:00:00Z,30.6671,-87.9365,1.57,0.87,1111122 
DISL,ioos:station:DISL:MHPA:1,2015-01-04T01:30:00Z,30.6671,-87.9365,1.607,0.88,1111122 
DISL,ioos:station:DISL:MHPA:1,2015-01-04T02:00:00Z,30.6671,-87.9365,1.625,0.88,1111122 
DISL,ioos:station:DISL:MHPA:1,2015-01-04T02:30:00Z,30.6671,-87.9365,1.645,0.88,1111122 
DISL,ioos:station:DISL:MHPA:1,2015-01-04T03:00:00Z,30.6671,-87.9365,1.658,0.85,1111122 
DISL,ioos:station:DISL:MHPA:1,2015-01-04T03:30:00Z,30.6671,-87.9365,1.686,0.87,1111122 
DISL,ioos:station:DISL:MHPA:1,2015-01-04T04:00:00Z,30.6671,-87.9365,1.682,0.83,1111122 
DISL,ioos:station:DISL:MHPA:1,2015-01-04T04:30:00Z,30.6671,-87.9365,1.663,0.78,1111122 
DISL,ioos:station:DISL:MHPA:1,2015-01-04T05:00:00Z,30.6671,-87.9365,1.64,0.7,1111122 
DISL,ioos:station:DISL:MHPA:1,2015-01-04T05:30:00Z,30.6671,-87.9365,1.628,0.67,1111122 
DISL,ioos:station:DISL:MHPA:1,2015-01-04T06:00:00Z,30.6671,-87.9365,1.625,0.77,1111122 
DISL,ioos:station:DISL:MHPA:1,2015-01-04T06:30:00Z,30.6671,-87.9365,1.582,0.73,1111122 
DISL,ioos:station:DISL:MHPA:1,2015-01-04T07:00:00Z,30.6671,-87.9365,1.536,0.76,1111122 
DISL,ioos:station:DISL:MHPA:1,2015-01-04T07:30:00Z,30.6671,-87.9365,1.507,0.73,1111122 
DISL,ioos:station:DISL:MHPA:1,2015-01-04T08:00:00Z,30.6671,-87.9365,1.477,0.68,1111122 
DISL,ioos:station:DISL:MHPA:1,2015-01-04T08:30:00Z,30.6671,-87.9365,1.461,0.69,1111122 
DISL,ioos:station:DISL:MHPA:1,2015-01-04T09:00:00Z,30.6671,-87.9365,1.39,0.7,1111122 
DISL,ioos:station:DISL:MHPA:1,2015-01-04T09:30:00Z,30.6671,-87.9365,1.331,0.68,1111122 
DISL,ioos:station:DISL:MHPA:1,2015-01-04T10:00:00Z,30.6671,-87.9365,1.265,0.57,1111122 
DISL,ioos:station:DISL:MHPA:1,2015-01-04T10:30:00Z,30.6671,-87.9365,1.225,0.35,1111122 
DISL,ioos:station:DISL:MHPA:1,2015-01-04T11:00:00Z,30.6671,-87.9365,1.179,0.62,1111122 
DISL,ioos:station:DISL:MHPA:1,2015-01-04T11:30:00Z,30.6671,-87.9365,1.147,0.49,1111122 
DISL,ioos:station:DISL:MHPA:1,2015-01-04T12:00:00Z,30.6671,-87.9365,1.107,0.51,1111122 
DISL,ioos:station:DISL:MHPA:1,2015-01-04T12:30:00Z,30.6671,-87.9365,1.061,0.52,1111122 
DISL,ioos:station:DISL:MHPA:1,2015-01-04T13:00:00Z,30.6671,-87.9365,1.041,0.49,1111122 
DISL,ioos:station:DISL:MHPA:1,2015-01-04T13:30:00Z,30.6671,-87.9365,1.026,0.51,1111122 
DISL,ioos:station:DISL:MHPA:1,2015-01-04T14:00:00Z,30.6671,-87.9365,0.996,0.56,1111122 
DISL,ioos:station:DISL:MHPA:1,2015-01-04T14:30:00Z,30.6671,-87.9365,0.986,0.44,1111122 
DISL,ioos:station:DISL:MHPA:1,2015-01-04T15:00:00Z,30.6671,-87.9365,0.976,0.4,1111122 
DISL,ioos:station:DISL:MHPA:1,2015-01-04T15:30:00Z,30.6671,-87.9365,0.959,0.34,1111122 
DISL,ioos:station:DISL:MHPA:1,2015-01-04T16:00:00Z,30.6671,-87.9365,0.941,0.39,1111122 
DISL,ioos:station:DISL:MHPA:1,2015-01-04T16:30:00Z,30.6671,-87.9365,0.921,0.43,1111122 
DISL,ioos:station:DISL:MHPA:1,2015-01-04T17:00:00Z,30.6671,-87.9365,0.906,0.47,1111122 
DISL,ioos:station:DISL:MHPA:1,2015-01-04T17:30:00Z,30.6671,-87.9365,0.893,0.4,1111122 
DISL,ioos:station:DISL:MHPA:1,2015-01-04T18:00:00Z,30.6671,-87.9365,0.886,0.41,1111122 
DISL,ioos:station:DISL:MHPA:1,2015-01-04T18:30:00Z,30.6671,-87.9365,0.882,0.42,1111122 
DISL,ioos:station:DISL:MHPA:1,2015-01-04T19:00:00Z,30.6671,-87.9365,0.88,0.48,1111122 
DISL,ioos:station:DISL:MHPA:1,2015-01-04T19:30:00Z,30.6671,-87.9365,0.877,0.38,1111122 
DISL,ioos:station:DISL:MHPA:1,2015-01-04T20:00:00Z,30.6671,-87.9365,0.88,0.28,1111122 
DISL,ioos:station:DISL:MHPA:1,2015-01-04T20:30:00Z,30.6671,-87.9365,0.885,0.35,1111122 
DISL,ioos:station:DISL:MHPA:1,2015-01-04T21:00:00Z,30.6671,-87.9365,0.907,0.37,1111122 
DISL,ioos:station:DISL:MHPA:1,2015-01-04T21:30:00Z,30.6671,-87.9365,0.936,0.4,1111122 
DISL,ioos:station:DISL:MHPA:1,2015-01-04T22:00:00Z,30.6671,-87.9365,0.958,0.53,1111122 
DISL,ioos:station:DISL:MHPA:1,2015-01-04T22:30:00Z,30.6671,-87.9365,1.02,0.47,1111122 
DISL,ioos:station:DISL:MHPA:1,2015-01-04T23:00:00Z,30.6671,-87.9365,1.063,0.36,1111122 
DISL,ioos:station:DISL:MHPA:1,2015-01-04T23:30:00Z,30.6671,-87.9365,1.09,0.34,1111122 
DISL,ioos:station:DISL:MHPA:1,2015-01-05T00:00:00Z,30.6671,-87.9365,1.122,0.32,1111122 
DISL,ioos:station:DISL:MHPA:1,2015-01-05T00:30:00Z,30.6671,-87.9365,1.128,0.29,1111122 
DISL,ioos:station:DISL:MHPA:1,2015-01-05T01:00:00Z,30.6671,-87.9365,1.121,0.36,1111122 
DISL,ioos:station:DISL:MHPA:1,2015-01-05T01:30:00Z,30.6671,-87.9365,1.15,0.3,1111122 
DISL,ioos:station:DISL:MHPA:1,2015-01-05T02:00:00Z,30.6671,-87.9365,1.165,0.31,1111122 
DISL,ioos:station:DISL:MHPA:1,2015-01-05T02:30:00Z,30.6671,-87.9365,1.147,0.2,1111122 
DISL,ioos:station:DISL:MHPA:1,2015-01-05T03:00:00Z,30.6671,-87.9365,1.136,0.17,1111122 
DISL,ioos:station:DISL:MHPA:1,2015-01-05T03:30:00Z,30.6671,-87.9365,1.136,0.17,1111122 
DISL,ioos:station:DISL:MHPA:1,2015-01-05T04:00:00Z,30.6671,-87.9365,1.157,0.15,1111122 
DISL,ioos:station:DISL:MHPA:1,2015-01-05T04:30:00Z,30.6671,-87.9365,1.135,0.19,1111122 
DISL,ioos:station:DISL:MHPA:1,2015-01-05T05:00:00Z,30.6671,-87.9365,1.102,0.21,1111122 
DISL,ioos:station:DISL:MHPA:1,2015-01-05T05:30:00Z,30.6671,-87.9365,1.068,0.2,1111122 
DISL,ioos:station:DISL:MHPA:1,2015-01-05T06:00:00Z,30.6671,-87.9365,1.025,0.18,1111122 
DISL,ioos:station:DISL:MHPA:1,2015-01-05T06:30:00Z,30.6671,-87.9365,0.986,0.21,1111122 
DISL,ioos:station:DISL:MHPA:1,2015-01-05T07:00:00Z,30.6671,-87.9365,0.943,0.29,1111122 
DISL,ioos:station:DISL:MHPA:1,2015-01-05T07:30:00Z,30.6671,-87.9365,0.899,0.25,1111122 
DISL,ioos:station:DISL:MHPA:1,2015-01-05T08:00:00Z,30.6671,-87.9365,0.862,0.25,1111122 
DISL,ioos:station:DISL:MHPA:1,2015-01-05T08:30:00Z,30.6671,-87.9365,0.83,0.25,1111122 
DISL,ioos:station:DISL:MHPA:1,2015-01-05T09:00:00Z,30.6671,-87.9365,0.809,0.25,1111122 
DISL,ioos:station:DISL:MHPA:1,2015-01-05T09:30:00Z,30.6671,-87.9365,0.798,0.26,1111122 
DISL,ioos:station:DISL:MHPA:1,2015-01-05T10:00:00Z,30.6671,-87.9365,0.793,0.24,1111122 
DISL,ioos:station:DISL:MHPA:1,2015-01-05T10:30:00Z,30.6671,-87.9365,0.788,0.25,1111122 
DISL,ioos:station:DISL:MHPA:1,2015-01-05T11:00:00Z,30.6671,-87.9365,0.781,0.28,1111122 
DISL,ioos:station:DISL:MHPA:1,2015-01-05T11:30:00Z,30.6671,-87.9365,0.771,0.25,1111122 
DISL,ioos:station:DISL:MHPA:1,2015-01-05T12:00:00Z,30.6671,-87.9365,0.759,0.24,1111122 
DISL,ioos:station:DISL:MHPA:1,2015-01-05T12:30:00Z,30.6671,-87.9365,0.744,0.27,1111122 
DISL,ioos:station:DISL:MHPA:1,2015-01-05T13:00:00Z,30.6671,-87.9365,0.728,0.25,1111122 
DISL,ioos:station:DISL:MHPA:1,2015-01-05T13:30:00Z,30.6671,-87.9365,0.711,0.28,1111122 
DISL,ioos:station:DISL:MHPA:1,2015-01-05T14:00:00Z,30.6671,-87.9365,0.694,0.28,1111122 
DISL,ioos:station:DISL:MHPA:1,2015-01-05T14:30:00Z,30.6671,-87.9365,0.68,0.28,1111122 
DISL,ioos:station:DISL:MHPA:1,2015-01-05T15:00:00Z,30.6671,-87.9365,0.668,0.29,1111122 
DISL,ioos:station:DISL:MHPA:1,2015-01-05T15:30:00Z,30.6671,-87.9365,0.657,0.3,1111122 
DISL,ioos:station:DISL:MHPA:1,2015-01-05T16:00:00Z,30.6671,-87.9365,0.646,0.31,1111122 
DISL,ioos:station:DISL:MHPA:1,2015-01-05T16:30:00Z,30.6671,-87.9365,0.638,0.31,1111122 
DISL,ioos:station:DISL:MHPA:1,2015-01-05T17:00:00Z,30.6671,-87.9365,0.63,0.29,1111122 
DISL,ioos:station:DISL:MHPA:1,2015-01-05T17:30:00Z,30.6671,-87.9365,0.623,0.31,1111122 
DISL,ioos:station:DISL:MHPA:1,2015-01-05T18:00:00Z,30.6671,-87.9365,0.617,0.33,1111122 
DISL,ioos:station:DISL:MHPA:1,2015-01-05T18:30:00Z,30.6671,-87.9365,0.614,0.33,1111122 
DISL,ioos:station:DISL:MHPA:1,2015-01-05T19:00:00Z,30.6671,-87.9365,0.614,0.33,1111122 
DISL,ioos:station:DISL:MHPA:1,2015-01-05T19:30:00Z,30.6671,-87.9365,0.621,0.31,1111122 
DISL,ioos:station:DISL:MHPA:1,2015-01-05T20:00:00Z,30.6671,-87.9365,0.637,0.31,1111122 
DISL,ioos:station:DISL:MHPA:1,2015-01-05T20:30:00Z,30.6671,-87.9365,0.661,0.31,1111122 
DISL,ioos:station:DISL:MHPA:1,2015-01-05T21:00:00Z,30.6671,-87.9365,0.696,0.27,1111122 
DISL,ioos:station:DISL:MHPA:1,2015-01-05T21:30:00Z,30.6671,-87.9365,0.744,0.31,1111122 
DISL,ioos:station:DISL:MHPA:1,2015-01-05T22:00:00Z,30.6671,-87.9365,0.805,0.32,1111122 
DISL,ioos:station:DISL:MHPA:1,2015-01-05T22:30:00Z,30.6671,-87.9365,0.861,0.34,1111122 
DISL,ioos:station:DISL:MHPA:1,2015-01-05T23:00:00Z,30.6671,-87.9365,0.905,0.33,1111122 
DISL,ioos:station:DISL:MHPA:1,2015-01-05T23:30:00Z,30.6671,-87.9365,0.958,0.33,1111122 
DISL,ioos:station:DISL:MHPA:1,2015-01-06T00:00:00Z,30.6671,-87.9365,0.992,0.33,1111122 
DISL,ioos:station:DISL:MHPA:1,2015-01-06T00:30:00Z,30.6671,-87.9365,1.015,0.3,1111122 
DISL,ioos:station:DISL:MHPA:1,2015-01-06T01:00:00Z,30.6671,-87.9365,1.027,0.31,1111122 
DISL,ioos:station:DISL:MHPA:1,2015-01-06T01:30:00Z,30.6671,-87.9365,1.04,0.33,1111122 
DISL,ioos:station:DISL:MHPA:1,2015-01-06T02:00:00Z,30.6671,-87.9365,1.061,0.34,1111122 
DISL,ioos:station:DISL:MHPA:1,2015-01-06T02:30:00Z,30.6671,-87.9365,1.088,0.33,1111122 
DISL,ioos:station:DISL:MHPA:1,2015-01-06T03:00:00Z,30.6671,-87.9365,1.115,0.32,1111122 
DISL,ioos:station:DISL:MHPA:1,2015-01-06T03:30:00Z,30.6671,-87.9365,1.143,0.31,1111122 
DISL,ioos:station:DISL:MHPA:1,2015-01-06T04:00:00Z,30.6671,-87.9365,1.186,0.28,1111122 
DISL,ioos:station:DISL:MHPA:1,2015-01-06T04:30:00Z,30.6671,-87.9365,1.207,0.31,1111122 
DISL,ioos:station:DISL:MHPA:1,2015-01-06T05:00:00Z,30.6671,-87.9365,1.21,0.27,1111122 
DISL,ioos:station:DISL:MHPA:1,2015-01-06T05:30:00Z,30.6671,-87.9365,1.21,0.24,1111122 
DISL,ioos:station:DISL:MHPA:1,2015-01-06T06:00:00Z,30.6671,-87.9365,1.199,0.23,1111122 
DISL,ioos:station:DISL:MHPA:1,2015-01-06T06:30:00Z,30.6671,-87.9365,1.178,0.17,1111122 
DISL,ioos:station:DISL:MHPA:1,2015-01-06T07:00:00Z,30.6671,-87.9365,1.152,0.16,1111122 
DISL,ioos:station:DISL:MHPA:1,2015-01-06T07:30:00Z,30.6671,-87.9365,1.122,0.17,1111122 
DISL,ioos:station:DISL:MHPA:1,2015-01-06T08:00:00Z,30.6671,-87.9365,1.092,0.19,1111122 
DISL,ioos:station:DISL:MHPA:1,2015-01-06T08:30:00Z,30.6671,-87.9365,1.062,0.18,1111122 
DISL,ioos:station:DISL:MHPA:1,2015-01-06T09:00:00Z,30.6671,-87.9365,1.034,0.21,1111122 
DISL,ioos:station:DISL:MHPA:1,2015-01-06T09:30:00Z,30.6671,-87.9365,1.005,0.23,1111122 
DISL,ioos:station:DISL:MHPA:1,2015-01-06T10:00:00Z,30.6671,-87.9365,0.979,0.29,1111122 
DISL,ioos:station:DISL:MHPA:1,2015-01-06T10:30:00Z,30.6671,-87.9365,0.952,0.25,1111122 
DISL,ioos:station:DISL:MHPA:1,2015-01-06T11:00:00Z,30.6671,-87.9365,0.926,0.26,1111122 
DISL,ioos:station:DISL:MHPA:1,2015-01-06T11:30:00Z,30.6671,-87.9365,0.905,0.25,1111122 
DISL,ioos:station:DISL:MHPA:1,2015-01-06T12:00:00Z,30.6671,-87.9365,0.883,0.23,1111122 
DISL,ioos:station:DISL:MHPA:1,2015-01-06T12:30:00Z,30.6671,-87.9365,0.858,0.21,1111122 
DISL,ioos:station:DISL:MHPA:1,2015-01-06T13:00:00Z,30.6671,-87.9365,0.832,0.21,1111122 
DISL,ioos:station:DISL:MHPA:1,2015-01-06T13:30:00Z,30.6671,-87.9365,0.806,0.2,1111122 
DISL,ioos:station:DISL:MHPA:1,2015-01-06T14:00:00Z,30.6671,-87.9365,0.781,0.21,1111122 
DISL,ioos:station:DISL:MHPA:1,2015-01-06T14:30:00Z,30.6671,-87.9365,0.759,0.21,1111122 
DISL,ioos:station:DISL:MHPA:1,2015-01-06T15:00:00Z,30.6671,-87.9365,0.74,0.21,1111122 
DISL,ioos:station:DISL:MHPA:1,2015-01-06T15:30:00Z,30.6671,-87.9365,0.724,0.22,1111122 
DISL,ioos:station:DISL:MHPA:1,2015-01-06T16:00:00Z,30.6671,-87.9365,0.713,0.22,1111122 